Voltar ao catálogo

DELTA 1 DEB

AtivoPO
NORAD 21290·DEBRIS·🇺🇸 United States

Lançado Jun 12, 1975 de Vandenberg Space Force Base

Loading…

Próximas Passagens (próximas 24 horas)

TLE

AtualizadoSource: Space-Track

Época: Sep 14, 2026, 14:54 UTC

1 21290U 75052AB  26257.62121931  .00000009  00000-0  19047-3 0  9993
2 21290  99.5382 141.0523 0512232 344.2935  40.9027 12.43362454603952

Acompanhe DELTA 1 DEB em tempo real com AllMySat

Download on the App Store